Latest Weather Observations for Redesdale

IDV60801

Issued at 4:02 am EST Friday 29 July 2016 (issued every 30 minutes, with the page automatically refreshed every 10 minutes)

About weather observations | Map of weather stations | Latest weather observations for VIC | Other Formats
Station Details ID: 088051 Name: REDESDALE Lat: -37.02 Lon: 144.52 Height: 290.0 m
Data from the previous 72 hours. | See also: Recent months at Redesdale
Date/Time
EST
Temp
°C
App
Temp
°C
Dew
Point
°C
Rel
Hum
%
Delta-T
°C
Wind Press
QNH
hPa
Press
MSL
hPa
Rain since
9am
mm
Dir  Spd
km/h
Gust
km/h
Spd
kts
Gust
kts
29/04:00am 8.4 6.4 7.0 91 0.7 N 7 9 4 5 - - 0.0
29/03:30am 8.5 6.5 7.1 91 0.7 N 7 11 4 6 - - 0.0
29/03:00am 8.6 6.6 7.1 90 0.7 N 7 11 4 6 - - 0.0
29/02:30am 8.8 6.5 7.3 90 0.7 N 9 13 5 7 - - 0.0
29/02:00am 8.9 6.2 7.4 90 0.7 NNW 11 17 6 9 - - 0.0
29/01:30am 8.9 6.3 7.7 92 0.6 NNW 11 17 6 9 - - 0.0
29/01:00am 9.0 6.4 7.8 92 0.6 NNW 11 17 6 9 - - 0.0
29/12:30am 9.1 6.1 7.7 91 0.7 NNW 13 19 7 10 - - 0.0
29/12:00am 9.0 6.8 7.8 92 0.6 NNW 9 15 5 8 - - 0.0
 
Date/Time
EST
Temp
°C
App
Temp
°C
Dew
Point
°C
Rel
Hum
%
Delta-T
°C
Wind Press
QNH
hPa
Press
MSL
hPa
Rain since
9am
mm
Dir  Spd
km/h
Gust
km/h
Spd
kts
Gust
kts
28/11:30pm 8.8 7.0 7.9 94 0.4 NNW 7 15 4 8 - - 0.0
28/11:00pm 8.3 6.3 7.2 93 0.5 NNW 7 11 4 6 - - 0.0
28/10:30pm 9.0 7.3 7.6 91 0.7 NNW 6 7 3 4 - - 0.0
28/10:00pm 9.2 7.5 7.5 89 0.8 N 6 9 3 5 - - 0.0
28/09:30pm 9.3 7.4 7.6 89 0.8 NNW 7 11 4 6 - - 0.0
28/09:00pm 9.2 6.9 7.3 88 0.9 NNW 9 13 5 7 - - 0.0
28/08:30pm 9.1 6.3 7.1 87 1.0 NW 11 13 6 7 - - 0.0
28/08:00pm 9.4 6.9 6.7 83 1.3 NNW 9 13 5 7 - - 0.0
28/07:30pm 9.7 7.2 6.6 81 1.5 NNW 9 15 5 8 - - 0.0
28/07:00pm 9.8 7.3 6.7 81 1.5 NW 9 13 5 7 - - 0.0
28/06:30pm 9.5 7.5 6.9 84 1.2 NNW 7 11 4 6 - - 0.0
28/06:00pm 9.9 7.8 6.8 81 1.5 NW 7 11 4 6 - - 0.0
28/05:30pm 10.2 8.2 7.1 81 1.5 N 7 11 4 6 - - 0.0
28/05:00pm 10.5 8.4 6.8 78 1.8 NNW 7 11 4 6 - - 0.0
28/04:30pm 10.8 8.4 6.9 77 1.9 NW 9 13 5 7 - - 0.0
28/04:00pm 11.0 8.2 6.9 76 2.0 NW 11 15 6 8 - - 0.0
28/03:30pm 10.8 7.9 6.7 76 2.0 NW 11 15 6 8 - - 0.0
28/03:00pm 10.7 7.8 6.5 75 2.0 NW 11 17 6 9 - - 0.0
28/02:30pm 10.7 8.7 7.0 78 1.8 WNW 7 15 4 8 - - 0.0
28/02:00pm 11.0 7.4 6.7 75 2.1 NW 15 20 8 11 - - 0.0
28/01:30pm 10.8 7.0 5.8 71 2.4 NW 15 24 8 13 - - 0.0
28/01:00pm 10.5 6.9 6.8 78 1.8 NW 15 20 8 11 - - 0.0
28/12:30pm 10.5 7.4 7.2 80 1.6 NNW 13 20 7 11 - - 0.0
28/12:00pm 10.2 6.6 6.7 79 1.7 NW 15 19 8 10 - - 0.0
28/11:30am 9.5 5.5 6.6 82 1.4 NW 17 24 9 13 - - 0.0
28/11:00am 9.7 6.5 7.0 83 1.3 NW 13 19 7 10 - - 0.0
28/10:30am 9.3 6.6 7.3 87 1.0 NW 11 15 6 8 - - 0.0
28/10:00am 9.0 6.7 7.6 91 0.7 NW 9 15 5 8 - - 0.0
28/09:30am 7.3 6.5 6.7 96 0.3 CALM 0 0 0 0 - - 0.0
28/09:00am 6.4 5.5 6.1 98 0.1 CALM 0 2 0 1 - - 0.0
28/08:30am 6.3 5.0 6.2 99 0.0 N 2 4 1 2 - - 0.0
28/08:00am 5.0 3.5 4.9 99 0.0 N 2 4 1 2 - - 0.0
28/07:30am 5.0 3.1 4.9 99 0.0 NNE 4 6 2 3 - - 0.0
28/07:00am 4.9 2.6 4.8 99 0.0 NNE 6 7 3 4 - - 0.0
28/06:30am 4.7 3.1 4.6 99 0.0 NNE 2 4 1 2 - - 0.0
28/06:00am 4.7 2.7 4.6 99 0.0 NNE 4 4 2 2 - - 0.0
28/05:30am 4.2 2.1 3.9 98 0.1 NNE 4 6 2 3 - - 0.0
28/05:00am 4.0 1.9 3.7 98 0.1 NNE 4 6 2 3 - - 0.0
28/04:30am 3.8 2.0 3.4 97 0.2 W 2 4 1 2 - - 0.0
28/04:00am 3.8 2.0 3.5 98 0.1 W 2 6 1 3 - - 0.0
28/03:30am 2.8 1.2 2.5 98 0.1 CALM 0 0 0 0 - - 0.0
28/03:00am 2.2 -0.3 1.6 96 0.2 SW 4 7 2 4 - - 0.0
28/02:30am 4.2 2.8 3.5 95 0.3 CALM 0 0 0 0 - - 0.0
28/02:00am 4.1 2.6 3.2 94 0.4 CALM 0 0 0 0 - - 0.0
28/01:30am 4.0 2.4 2.7 91 0.5 CALM 0 0 0 0 - - 0.0
28/01:00am 5.2 3.9 4.0 92 0.5 CALM 0 0 0 0 - - 0.0
28/12:30am 5.0 3.7 4.0 93 0.4 CALM 0 0 0 0 - - 0.0
28/12:00am 4.9 3.6 3.9 93 0.4 CALM 0 0 0 0 - - 0.0
 
Date/Time
EST
Temp
°C
App
Temp
°C
Dew
Point
°C
Rel
Hum
%
Delta-T
°C
Wind Press
QNH
hPa
Press
MSL
hPa
Rain since
9am
mm
Dir  Spd
km/h
Gust
km/h
Spd
kts
Gust
kts
27/11:30pm 5.6 4.2 3.6 87 0.9 CALM 0 0 0 0 - - 0.0
27/11:00pm 6.1 4.8 3.9 86 0.9 CALM 0 0 0 0 - - 0.0
27/10:30pm 6.2 4.0 3.5 83 1.2 WNW 4 6 2 3 - - 0.0
27/10:00pm 6.7 4.6 3.9 82 1.2 WNW 4 6 2 3 - - 0.0
27/09:30pm 7.0 3.9 3.8 80 1.4 WSW 9 15 5 8 - - 0.0
27/09:00pm 7.5 4.8 3.9 78 1.6 WSW 7 11 4 6 - - 0.0
27/08:30pm 7.6 5.1 4.0 78 1.6 WSW 6 13 3 7 - - 0.0
27/08:00pm 7.8 4.9 4.4 79 1.5 WSW 9 13 5 7 - - 0.0
27/07:30pm 7.3 4.9 4.1 80 1.4 WSW 6 11 3 6 - - 0.0
27/07:00pm 8.0 4.6 4.0 76 1.8 W 11 20 6 11 - - 0.0
27/06:30pm 7.8 5.3 4.0 77 1.7 W 6 9 3 5 - - 0.0
27/06:00pm 7.9 5.2 3.8 75 1.8 WSW 7 15 4 8 - - 0.0
27/05:30pm 7.8 4.7 3.7 75 1.8 WSW 9 17 5 9 - - 0.0
27/05:00pm 8.6 4.0 3.8 72 2.1 WSW 17 33 9 18 - - 0.0
27/04:30pm 9.2 6.1 3.8 69 2.4 WSW 9 19 5 10 - - 0.0
27/04:00pm 9.1 4.4 2.9 65 2.7 WSW 17 32 9 17 - - 0.0
27/03:30pm 9.3 5.0 3.3 66 2.6 WSW 15 24 8 13 - - 0.0
27/03:00pm 9.7 5.2 4.1 68 2.5 WSW 17 33 9 18 - - 0.0
27/02:30pm 9.9 5.2 3.2 63 2.9 WSW 17 26 9 14 - - 0.0
27/02:00pm 9.4 4.8 3.6 67 2.6 SW 17 26 9 14 - - 0.0
27/01:30pm 9.8 5.0 4.4 69 2.4 WSW 19 28 10 15 - - 0.0
27/01:00pm 9.6 5.4 4.0 68 2.5 WSW 15 22 8 12 - - 0.0
27/12:30pm 9.9 6.0 3.4 64 2.9 SW 13 32 7 17 - - 0.0
27/12:00pm 10.2 5.4 4.8 69 2.5 SSW 19 30 10 16 - - 0.0
27/11:30am 9.9 4.7 5.3 73 2.1 SSW 22 33 12 18 - - 0.0
27/11:00am 9.3 5.5 5.9 79 1.6 SW 15 22 8 12 - - 0.0
27/10:30am 10.6 6.4 7.3 80 1.6 SW 19 28 10 15 - - 0.0
27/10:00am 9.5 7.3 7.8 89 0.8 WSW 9 17 5 9 - - 0.0
27/09:30am 8.7 6.5 7.9 95 0.4 WSW 9 17 5 9 - - 0.0
27/09:00am 8.7 7.0 8.3 97 0.2 W 7 13 4 7 - - 2.2
27/08:30am 8.3 6.2 8.2 99 0.0 WSW 9 15 5 8 - - 2.2
27/08:00am 7.0 5.0 6.9 99 0.0 WSW 7 13 4 7 - - 2.2
27/07:30am 6.6 4.5 6.5 99 0.0 WSW 7 13 4 7 - - 2.2
27/07:00am 6.9 5.0 6.8 99 0.0 WSW 6 9 3 5 - - 2.2
27/06:30am 6.8 6.0 6.7 99 0.0 CALM 0 0 0 0 - - 2.0
27/06:00am 6.7 5.5 6.6 99 0.0 NW 2 2 1 1 - - 2.0
27/05:30am 6.6 5.8 6.5 99 0.0 CALM 0 0 0 0 - - 2.0
27/05:00am 6.4 5.2 6.3 99 0.0 NW 2 6 1 3 - - 2.0
27/04:30am 6.3 5.0 6.2 99 0.0 WNW 2 7 1 4 - - 2.0
27/04:00am 6.4 4.8 6.3 99 0.0 NNW 4 4 2 2 - - 2.0
27/03:30am 6.3 4.7 6.2 99 0.0 N 4 6 2 3 - - 2.0
27/03:00am 6.3 4.3 6.2 99 0.0 N 6 9 3 5 - - 2.0
27/02:30am 6.3 4.3 6.2 99 0.0 N 6 9 3 5 - - 2.0
27/02:00am 6.2 4.0 6.1 99 0.0 N 7 13 4 7 - - 1.8
27/01:30am 6.1 3.1 6.0 99 0.0 N 11 15 6 8 - - 1.8
27/01:00am 6.2 2.8 6.1 99 0.0 N 13 17 7 9 - - 1.8
27/12:30am 6.2 2.8 5.8 97 0.2 N 13 19 7 10 - - 1.6
27/12:00am 6.4 2.9 5.5 94 0.4 N 13 20 7 11 - - 1.4
 
Date/Time
EST
Temp
°C
App
Temp
°C
Dew
Point
°C
Rel
Hum
%
Delta-T
°C
Wind Press
QNH
hPa
Press
MSL
hPa
Rain since
9am
mm
Dir  Spd
km/h
Gust
km/h
Spd
kts
Gust
kts
26/11:30pm 6.4 2.9 5.4 93 0.4 N 13 20 7 11 - - 1.2
26/11:00pm 6.3 2.8 5.4 94 0.4 N 13 19 7 10 - - 1.2
26/10:30pm 6.2 2.2 5.0 92 0.5 N 15 20 8 11 - - 1.0
26/10:00pm 6.4 2.5 5.2 92 0.5 N 15 26 8 14 - - 1.0
26/09:30pm 6.3 2.3 4.9 91 0.6 N 15 22 8 12 - - 1.0
26/09:00pm 6.3 1.9 4.6 89 0.7 N 17 26 9 14 - - 1.0
26/08:30pm 6.5 2.4 4.5 87 0.9 N 15 24 8 13 - - 1.0
26/08:00pm 6.8 2.4 4.6 86 1.0 N 17 24 9 13 - - 1.0
26/07:30pm 6.9 2.1 4.9 87 0.9 N 19 30 10 16 - - 1.0
26/07:00pm 6.9 3.0 5.5 91 0.6 N 15 20 8 11 - - 1.0
26/06:30pm 6.3 2.8 5.4 94 0.4 N 13 20 7 11 - - 1.0
26/06:00pm 6.5 2.5 5.1 91 0.6 N 15 20 8 11 - - 0.8
26/05:30pm 6.6 3.0 5.1 90 0.7 NNW 13 20 7 11 - - 0.8
26/05:00pm 7.1 2.7 4.6 84 1.1 N 17 24 9 13 - - 0.6
26/04:30pm 7.8 2.9 4.2 78 1.6 NNW 19 24 10 13 - - 0.4
26/04:00pm 7.9 3.9 4.7 80 1.4 NNW 15 22 8 12 - - 0.4
26/03:30pm 7.7 4.5 5.0 83 1.2 NNW 11 19 6 10 - - 0.2
26/03:00pm 7.3 2.2 4.1 80 1.4 NNW 20 33 11 18 - - 0.2
26/02:30pm 8.0 2.3 2.9 70 2.2 NNW 22 37 12 20 - - 0.2
26/02:00pm 8.2 2.6 3.3 71 2.1 NNW 22 32 12 17 - - 0.0
26/01:30pm 8.1 2.8 3.2 71 2.1 NNW 20 32 11 17 - - 0.0
26/01:00pm 8.1 3.0 3.9 75 1.8 NNW 20 28 11 15 - - 0.0
26/12:30pm 7.6 3.5 4.4 80 1.4 NW 15 24 8 13 - - 0.0
26/12:00pm 7.2 2.7 4.3 82 1.3 NNW 17 24 9 13 - - 0.0
26/11:30am 6.3 2.6 4.3 87 0.9 NNW 13 20 7 11 - - 0.0
26/11:00am 5.8 2.5 4.3 90 0.7 N 11 15 6 8 - - 0.0
26/10:30am 4.9 1.4 3.7 92 0.5 N 11 19 6 10 - - 0.0
26/10:00am 4.8 0.9 3.5 91 0.5 N 13 17 7 9 - - 0.0
26/09:30am 4.5 1.0 3.5 93 0.4 N 11 19 6 10 - - 0.0
26/09:00am 4.4 0.9 3.4 93 0.4 N 11 19 6 10 - - 4.4
26/08:30am 4.1 0.5 3.2 94 0.4 N 11 15 6 8 - - 4.4
26/08:00am 3.8 1.0 3.1 95 0.3 N 7 11 4 6 - - 4.4
26/07:30am 3.7 0.9 3.0 95 0.3 N 7 11 4 6 - - 4.4
26/07:00am 3.6 0.8 2.9 95 0.3 N 7 9 4 5 - - 4.4
26/06:30am 2.8 0.4 2.1 95 0.3 NNE 4 6 2 3 - - 4.4
26/06:00am 2.5 0.0 1.5 93 0.4 NNE 4 7 2 4 - - 4.4
26/05:30am 2.6 -0.3 1.3 91 0.5 N 6 7 3 4 - - 4.4
26/05:00am 3.5 -0.3 1.7 88 0.7 NW 11 19 6 10 - - 4.4
26/04:30am 3.9 -0.6 1.9 87 0.8 NW 15 24 8 13 - - 4.4

Other Formats:

Comma delimited format used in spreadsheet applications
http://www.bom.gov.au/fwo/IDV60801/IDV60801.94859.axf

JavaScript Object Notation format (JSON) in row-major order
http://www.bom.gov.au/fwo/IDV60801/IDV60801.94859.json